Time,TemperatureF,DewpointF,PressureIn,WindDirection,WindDirectionDegrees,WindSpeedMPH,WindSpeedGustMPH,Humidity,HourlyPrecipIn,Conditions,Clouds,dailyrainin,SoftwareType,DateUTC
2013-05-13 00:02:00,51.4,18.5,29.80,West,270,0.0,0.0,27,0.00,,,0.00,WSDL version 420,2013-05-13 05:02:00,
2013-05-13 00:08:00,51.7,18.8,29.80,West,270,0.0,0.0,27,0.00,,,0.00,WSDL version 420,2013-05-13 05:08:00,
2013-05-13 00:14:00,51.7,18.8,29.80,West,270,0.0,0.0,27,0.00,,,0.00,WSDL version 420,2013-05-13 05:14:00,
2013-05-13 00:20:00,51.0,18.2,29.80,West,270,0.0,0.0,27,0.00,,,0.00,WSDL version 420,2013-05-13 05:20:00,
2013-05-13 00:26:00,50.4,17.7,29.80,West,270,0.0,0.0,27,0.00,,,0.00,WSDL version 420,2013-05-13 05:26:00,
2013-05-13 00:32:00,50.2,17.8,29.80,West,270,0.0,0.0,28,0.00,,,0.00,WSDL version 420,2013-05-13 05:32:00,
2013-05-13 00:38:00,50.2,18.3,29.80,West,270,0.0,0.0,28,0.00,,,0.00,WSDL version 420,2013-05-13 05:38:00,
2013-05-13 00:44:00,49.7,18.1,29.80,West,270,0.0,0.0,29,0.00,,,0.00,WSDL version 420,2013-05-13 05:44:00,
2013-05-13 00:50:00,49.6,18.7,29.80,West,270,0.0,0.0,29,0.00,,,0.00,WSDL version 420,2013-05-13 05:50:00,
2013-05-13 00:56:00,50.2,19.2,29.80,West,270,0.0,0.0,29,0.00,,,0.00,WSDL version 420,2013-05-13 05:56:00,
2013-05-13 01:02:00,50.3,19.3,29.80,West,270,0.0,0.0,29,0.00,,,0.00,WSDL version 420,2013-05-13 06:02:00,
2013-05-13 01:08:00,50.1,19.1,29.80,West,270,0.0,0.0,29,0.00,,,0.00,WSDL version 420,2013-05-13 06:08:00,
2013-05-13 01:14:00,49.9,19.1,29.80,West,270,0.0,0.0,30,0.00,,,0.00,WSDL version 420,2013-05-13 06:14:00,
2013-05-13 01:20:00,49.8,19.5,29.80,West,270,0.0,0.0,30,0.00,,,0.00,WSDL version 420,2013-05-13 06:20:00,
2013-05-13 01:26:00,50.0,19.8,29.80,West,270,0.0,0.0,30,0.00,,,0.00,WSDL version 420,2013-05-13 06:26:00,
2013-05-13 01:32:00,50.0,19.8,29.80,West,270,0.0,0.0,30,0.00,,,0.00,WSDL version 420,2013-05-13 06:32:00,
2013-05-13 01:38:00,49.4,19.2,29.80,West,270,0.0,0.0,30,0.00,,,0.00,WSDL version 420,2013-05-13 06:38:00,
2013-05-13 01:44:00,48.9,19.3,29.80,West,270,0.0,0.0,31,0.00,,,0.00,WSDL version 420,2013-05-13 06:44:00,
2013-05-13 01:50:00,48.9,19.4,29.80,West,270,0.0,0.0,31,0.00,,,0.00,WSDL version 420,2013-05-13 06:50:00,
2013-05-13 01:56:00,48.6,19.4,29.80,West,270,0.0,0.0,31,0.00,,,0.00,WSDL version 420,2013-05-13 06:56:00,
2013-05-13 02:02:00,48.4,19.6,29.77,West,270,0.0,0.0,32,0.00,,,0.00,WSDL version 420,2013-05-13 07:02:00,
2013-05-13 02:08:00,48.8,20.4,29.77,West,270,0.0,0.0,33,0.00,,,0.00,WSDL version 420,2013-05-13 07:08:00,
2013-05-13 02:14:00,48.8,20.3,29.77,West,270,0.0,0.0,32,0.00,,,0.00,WSDL version 420,2013-05-13 07:14:00,
2013-05-13 02:20:00,48.7,20.9,29.77,West,270,0.0,0.0,33,0.00,,,0.00,WSDL version 420,2013-05-13 07:20:00,
2013-05-13 02:26:00,48.9,21.1,29.77,West,270,0.0,0.0,33,0.00,,,0.00,WSDL version 420,2013-05-13 07:26:00,
2013-05-13 02:32:00,49.0,21.3,29.77,West,270,0.0,0.0,33,0.00,,,0.00,WSDL version 420,2013-05-13 07:32:00,
2013-05-13 02:38:00,49.1,21.2,29.77,West,270,0.0,0.0,33,0.00,,,0.00,WSDL version 420,2013-05-13 07:38:00,
2013-05-13 02:44:00,48.7,20.9,29.77,West,270,0.0,0.0,33,0.00,,,0.00,WSDL version 420,2013-05-13 07:44:00,
2013-05-13 02:50:00,48.5,21.1,29.77,West,270,0.0,0.0,35,0.00,,,0.00,WSDL version 420,2013-05-13 07:50:00,
2013-05-13 02:56:00,48.7,21.6,29.77,West,270,0.0,0.0,34,0.00,,,0.00,WSDL version 420,2013-05-13 07:56:00,
2013-05-13 03:02:00,48.3,21.2,29.77,West,270,0.0,0.0,34,0.00,,,0.00,WSDL version 420,2013-05-13 08:02:00,
2013-05-13 03:08:00,48.2,21.3,29.77,West,270,0.0,0.0,35,0.00,,,0.00,WSDL version 420,2013-05-13 08:08:00,
2013-05-13 03:14:00,48.2,21.8,29.77,West,270,0.0,0.0,35,0.00,,,0.00,WSDL version 420,2013-05-13 08:14:00,
2013-05-13 03:20:00,48.0,22.0,29.80,West,270,0.0,0.0,36,0.00,,,0.00,WSDL version 420,2013-05-13 08:20:00,
2013-05-13 03:26:00,47.9,22.1,29.80,West,270,0.0,0.0,36,0.00,,,0.00,WSDL version 420,2013-05-13 08:26:00,
2013-05-13 03:32:00,48.2,22.2,29.77,West,270,0.0,0.0,36,0.00,,,0.00,WSDL version 420,2013-05-13 08:32:00,
2013-05-13 03:38:00,48.1,22.4,29.77,West,270,0.0,0.0,36,0.00,,,0.00,WSDL version 420,2013-05-13 08:38:00,
2013-05-13 03:44:00,48.0,22.3,29.77,West,270,0.0,0.0,36,0.00,,,0.00,WSDL version 420,2013-05-13 08:44:00,
2013-05-13 03:50:00,48.0,22.3,29.77,West,270,0.0,0.0,36,0.00,,,0.00,WSDL version 420,2013-05-13 08:50:00,
2013-05-13 03:56:00,48.1,22.4,29.77,West,270,0.0,0.0,36,0.00,,,0.00,WSDL version 420,2013-05-13 08:56:00,
2013-05-13 04:02:00,48.3,22.6,29.80,West,270,0.0,0.0,36,0.00,,,0.00,WSDL version 420,2013-05-13 09:02:00,
2013-05-13 04:08:00,48.1,22.5,29.80,West,270,0.0,0.0,37,0.00,,,0.00,WSDL version 420,2013-05-13 09:08:00,
2013-05-13 04:14:00,48.0,23.0,29.80,West,270,0.0,0.0,37,0.00,,,0.00,WSDL version 420,2013-05-13 09:14:00,
2013-05-13 04:20:00,48.3,23.0,29.77,West,270,0.0,0.0,37,0.00,,,0.00,WSDL version 420,2013-05-13 09:20:00,
2013-05-13 04:26:00,48.4,22.9,29.77,West,270,0.0,0.0,36,0.00,,,0.00,WSDL version 420,2013-05-13 09:26:00,
2013-05-13 04:32:00,48.4,23.1,29.80,West,270,0.0,0.0,37,0.00,,,0.00,WSDL version 420,2013-05-13 09:32:00,
2013-05-13 04:38:00,48.4,22.7,29.80,West,270,0.0,0.0,36,0.00,,,0.00,WSDL version 420,2013-05-13 09:38:00,
2013-05-13 04:44:00,48.4,23.0,29.80,West,270,0.0,0.0,37,0.00,,,0.00,WSDL version 420,2013-05-13 09:44:00,
2013-05-13 04:50:00,48.4,22.7,29.80,West,270,0.0,0.0,36,0.00,,,0.00,WSDL version 420,2013-05-13 09:50:00,
2013-05-13 04:56:00,47.9,22.9,29.80,West,270,0.0,0.0,37,0.00,,,0.00,WSDL version 420,2013-05-13 09:56:00,
2013-05-13 05:02:00,47.7,22.7,29.80,West,270,0.0,0.0,37,0.00,,,0.00,WSDL version 420,2013-05-13 10:02:00,
2013-05-13 05:08:00,48.1,23.0,29.80,West,270,0.0,0.0,37,0.00,,,0.00,WSDL version 420,2013-05-13 10:08:00,
2013-05-13 05:14:00,48.3,23.2,29.80,West,270,0.0,0.0,37,0.00,,,0.00,WSDL version 420,2013-05-13 10:14:00,
2013-05-13 05:20:00,48.3,23.2,29.77,West,270,0.0,0.0,36,0.00,,,0.00,WSDL version 420,2013-05-13 10:20:00,
2013-05-13 05:26:00,48.0,23.0,29.77,West,270,0.0,0.0,37,0.00,,,0.00,WSDL version 420,2013-05-13 10:26:00,
2013-05-13 05:32:00,47.5,22.5,29.80,West,270,0.0,0.0,37,0.00,,,0.00,WSDL version 420,2013-05-13 10:32:00,
2013-05-13 05:38:00,47.4,22.4,29.80,West,270,0.0,0.0,37,0.00,,,0.00,WSDL version 420,2013-05-13 10:38:00,
2013-05-13 05:44:00,47.0,22.2,29.80,West,270,0.0,0.0,38,0.00,,,0.00,WSDL version 420,2013-05-13 10:44:00,
2013-05-13 05:50:00,47.3,22.3,29.80,West,270,0.0,0.0,37,0.00,,,0.00,WSDL version 420,2013-05-13 10:50:00,
2013-05-13 05:56:00,47.3,22.4,29.80,West,270,0.0,0.0,37,0.00,,,0.00,WSDL version 420,2013-05-13 10:56:00,
2013-05-13 06:02:00,47.3,22.4,29.80,West,270,0.0,0.0,37,0.00,,,0.00,WSDL version 420,2013-05-13 11:02:00,
2013-05-13 06:08:00,47.2,22.8,29.80,West,270,0.0,0.0,38,0.00,,,0.00,WSDL version 420,2013-05-13 11:08:00,
2013-05-13 06:14:00,47.5,23.1,29.80,West,270,0.0,0.0,38,0.00,,,0.00,WSDL version 420,2013-05-13 11:14:00,
2013-05-13 06:20:00,47.2,22.9,29.80,North,0,0.0,0.0,38,0.00,,,0.00,WSDL version 420,2013-05-13 11:20:00,
2013-05-13 06:26:00,47.2,22.9,29.80,West,270,0.0,0.0,38,0.00,,,0.00,WSDL version 420,2013-05-13 11:26:00,
2013-05-13 06:32:00,46.9,22.7,29.80,West,270,0.0,0.0,38,0.00,,,0.00,WSDL version 420,2013-05-13 11:32:00,
2013-05-13 06:38:00,46.8,22.5,29.80,West,270,0.0,0.0,38,0.00,,,0.00,WSDL version 420,2013-05-13 11:38:00,
2013-05-13 06:44:00,46.8,22.5,29.80,West,270,0.0,0.0,38,0.00,,,0.00,WSDL version 420,2013-05-13 11:44:00,
2013-05-13 06:50:00,47.1,23.0,29.83,West,270,0.0,0.0,39,0.00,,,0.00,WSDL version 420,2013-05-13 11:50:00,
2013-05-13 06:56:00,47.2,23.5,29.83,West,270,0.0,0.0,39,0.00,,,0.00,WSDL version 420,2013-05-13 11:56:00,
2013-05-13 07:02:00,47.3,23.6,29.83,West,270,0.0,0.0,39,0.00,,,0.00,WSDL version 420,2013-05-13 12:02:00,
2013-05-13 07:08:00,47.3,23.6,29.83,West,270,0.0,0.0,39,0.00,,,0.00,WSDL version 420,2013-05-13 12:08:00,
2013-05-13 07:14:00,47.6,24.0,29.83,West,270,0.0,0.0,40,0.00,,,0.00,WSDL version 420,2013-05-13 12:14:00,
2013-05-13 07:20:00,47.9,24.2,29.83,West,270,0.0,0.0,39,0.00,,,0.00,WSDL version 420,2013-05-13 12:20:00,
2013-05-13 07:26:00,48.2,24.4,29.83,North,-999,-999.0,-999.0,39,0.00,,,0.00,WSDL version 420,2013-05-13 12:26:00,
2013-05-13 07:32:00,48.5,24.7,29.83,West,270,0.0,0.0,39,0.00,,,0.00,WSDL version 420,2013-05-13 12:32:00,
2013-05-13 07:38:00,48.9,25.0,29.83,West,270,0.0,0.0,39,0.00,,,0.00,WSDL version 420,2013-05-13 12:38:00,
2013-05-13 07:44:00,49.1,25.3,29.83,West,270,0.0,0.0,39,0.00,,,0.00,WSDL version 420,2013-05-13 12:44:00,
2013-05-13 07:50:00,49.6,25.6,29.85,West,270,0.0,0.0,39,0.00,,,0.00,WSDL version 420,2013-05-13 12:50:00,
2013-05-13 07:56:00,50.2,25.7,29.85,West,270,0.0,0.0,39,0.00,,,0.00,WSDL version 420,2013-05-13 12:56:00,
2013-05-13 08:02:00,50.8,26.1,29.85,West,270,0.0,0.0,38,0.00,,,0.00,WSDL version 420,2013-05-13 13:02:00,
2013-05-13 08:08:00,51.4,26.7,29.85,West,270,0.0,0.0,38,0.00,,,0.00,WSDL version 420,2013-05-13 13:08:00,
2013-05-13 08:14:00,51.9,26.5,29.85,West,270,0.0,0.0,37,0.00,,,0.00,WSDL version 420,2013-05-13 13:14:00,
2013-05-13 08:20:00,52.4,26.9,29.83,West,270,0.0,0.0,37,0.00,,,0.00,WSDL version 420,2013-05-13 13:20:00,
2013-05-13 08:26:00,53.5,28.1,29.83,West,270,0.0,0.0,37,0.00,,,0.00,WSDL version 420,2013-05-13 13:26:00,
2013-05-13 08:32:00,54.4,28.4,29.85,West,270,0.0,0.0,36,0.00,,,0.00,WSDL version 420,2013-05-13 13:32:00,
2013-05-13 08:38:00,54.8,28.4,29.85,NW,315,0.0,0.0,36,0.00,,,0.00,WSDL version 420,2013-05-13 13:38:00,
2013-05-13 08:44:00,55.2,29.1,29.85,NW,315,0.0,0.0,36,0.00,,,0.00,WSDL version 420,2013-05-13 13:44:00,
2013-05-13 08:50:00,56.1,29.5,29.85,NW,315,0.0,0.0,36,0.00,,,0.00,WSDL version 420,2013-05-13 13:50:00,
2013-05-13 08:56:00,57.3,30.3,29.85,NW,315,0.0,0.0,35,0.00,,,0.00,WSDL version 420,2013-05-13 13:56:00,
2013-05-13 09:02:00,58.7,30.6,29.85,NW,315,0.0,0.0,33,0.00,,,0.00,WSDL version 420,2013-05-13 14:02:00,
2013-05-13 09:08:00,59.8,29.6,29.85,SE,135,0.0,0.0,31,0.00,,,0.00,WSDL version 420,2013-05-13 14:08:00,
2013-05-13 09:14:00,60.5,27.2,29.85,SW,225,0.0,0.0,26,0.00,,,0.00,WSDL version 420,2013-05-13 14:14:00,
2013-05-13 09:20:00,61.3,25.2,29.85,West,270,0.0,0.0,25,0.00,,,0.00,WSDL version 420,2013-05-13 14:20:00,
2013-05-13 09:26:00,61.6,25.5,29.85,South,188,0.0,0.0,25,0.00,,,0.00,WSDL version 420,2013-05-13 14:26:00,
2013-05-13 09:32:00,62.2,26.0,29.85,SW,225,0.0,0.0,25,0.00,,,0.00,WSDL version 420,2013-05-13 14:32:00,
2013-05-13 09:38:00,62.8,25.5,29.85,SW,225,0.0,0.0,24,0.00,,,0.00,WSDL version 420,2013-05-13 14:38:00,
2013-05-13 09:44:00,63.7,26.3,29.85,North,-999,-999.0,-999.0,24,0.00,,,0.00,WSDL version 420,2013-05-13 14:44:00,
2013-05-13 09:50:00,64.5,26.1,29.88,West,270,0.0,0.0,23,0.00,,,0.00,WSDL version 420,2013-05-13 14:50:00,
2013-05-13 09:56:00,65.1,24.8,29.88,West,270,0.0,0.0,20,0.00,,,0.00,WSDL version 420,2013-05-13 14:56:00,
2013-05-13 10:02:00,65.8,23.7,29.88,North,0,0.0,0.0,20,0.00,,,0.00,WSDL version 420,2013-05-13 15:02:00,
2013-05-13 10:08:00,66.4,24.1,29.88,ESE,113,0.0,0.0,20,0.00,,,0.00,WSDL version 420,2013-05-13 15:08:00,
2013-05-13 10:14:00,66.6,24.3,29.88,North,-999,-999.0,-999.0,20,0.00,,,0.00,WSDL version 420,2013-05-13 15:14:00,
2013-05-13 10:20:00,67.0,24.6,29.85,South,180,0.0,0.0,20,0.00,,,0.00,WSDL version 420,2013-05-13 15:20:00,
2013-05-13 10:26:00,67.5,25.0,29.85,North,-999,-999.0,-999.0,20,0.00,,,0.00,WSDL version 420,2013-05-13 15:26:00,
2013-05-13 10:32:00,67.9,25.3,29.88,SE,135,0.0,0.0,20,0.00,,,0.00,WSDL version 420,2013-05-13 15:32:00,
2013-05-13 10:38:00,68.3,25.7,29.88,North,-999,-999.0,-999.0,20,0.00,,,0.00,WSDL version 420,2013-05-13 15:38:00,
2013-05-13 10:44:00,68.4,25.1,29.88,North,360,0.0,0.0,20,0.00,,,0.00,WSDL version 420,2013-05-13 15:44:00,
2013-05-13 10:50:00,68.5,25.9,29.88,West,270,0.0,0.0,20,0.00,,,0.00,WSDL version 420,2013-05-13 15:50:00,
2013-05-13 10:56:00,68.7,26.1,29.88,SSE,158,0.0,0.0,20,0.00,,,0.00,WSDL version 420,2013-05-13 15:56:00,
2013-05-13 11:02:00,68.7,26.0,29.88,North,-999,-999.0,-999.0,20,0.00,,,0.00,WSDL version 420,2013-05-13 16:02:00,
2013-05-13 11:08:00,68.7,26.1,29.88,SW,225,0.0,0.0,20,0.00,,,0.00,WSDL version 420,2013-05-13 16:08:00,
2013-05-13 11:14:00,69.0,24.7,29.88,ESE,113,0.0,0.0,17,0.00,,,0.00,WSDL version 420,2013-05-13 16:14:00,
2013-05-13 11:20:00,69.5,22.8,29.88,NW,315,0.0,0.0,17,0.00,,,0.00,WSDL version 420,2013-05-13 16:20:00,
2013-05-13 11:26:00,69.8,23.0,29.88,South,173,1.4,3.1,17,0.00,,,0.00,WSDL version 420,2013-05-13 16:26:00,
2013-05-13 11:32:00,70.0,23.2,29.88,SSW,208,0.0,3.1,17,0.00,,,0.00,WSDL version 420,2013-05-13 16:32:00,
2013-05-13 11:38:00,69.7,23.0,29.88,SW,225,0.0,0.0,17,0.00,,,0.00,WSDL version 420,2013-05-13 16:38:00,
2013-05-13 11:44:00,70.0,23.2,29.88,East,79,0.0,0.0,17,0.00,,,0.00,WSDL version 420,2013-05-13 16:44:00,
2013-05-13 11:50:00,70.5,23.6,29.88,West,270,0.0,0.0,17,0.00,,,0.00,WSDL version 420,2013-05-13 16:50:00,
2013-05-13 11:56:00,70.7,23.8,29.88,WSW,248,0.0,0.0,17,0.00,,,0.00,WSDL version 420,2013-05-13 16:56:00,
2013-05-13 12:02:00,71.1,24.1,29.85,SE,146,0.0,4.0,17,0.00,,,0.00,WSDL version 420,2013-05-13 17:02:00,
2013-05-13 12:08:00,71.5,23.9,29.85,North,0,0.0,4.0,16,0.00,,,0.00,WSDL version 420,2013-05-13 17:08:00,
2013-05-13 12:14:00,72.0,23.4,29.85,SSE,158,1.6,2.2,16,0.00,,,0.00,WSDL version 420,2013-05-13 17:14:00,
2013-05-13 12:20:00,73.2,24.3,29.85,North,-999,-999.0,-999.0,16,0.00,,,0.00,WSDL version 420,2013-05-13 17:20:00,
2013-05-13 12:26:00,73.6,24.7,29.85,ESE,113,0.0,0.0,16,0.00,,,0.00,WSDL version 420,2013-05-13 17:26:00,
2013-05-13 12:33:00,73.6,24.7,29.85,SW,225,0.0,0.0,16,0.00,,,0.00,WSDL version 420,2013-05-13 17:33:00,
2013-05-13 12:39:00,74.2,25.2,29.85,SSE,158,0.0,0.0,16,0.00,,,0.00,WSDL version 420,2013-05-13 17:39:00,
2013-05-13 12:45:00,75.0,25.3,29.85,North,-999,-999.0,-999.0,15,0.00,,,0.00,WSDL version 420,2013-05-13 17:45:00,
2013-05-13 12:51:00,75.3,24.5,29.85,North,-999,-999.0,-999.0,15,0.00,,,0.00,WSDL version 420,2013-05-13 17:51:00,
2013-05-13 12:57:00,75.4,24.6,29.85,North,-999,-999.0,-999.0,15,0.00,,,0.00,WSDL version 420,2013-05-13 17:57:00,
2013-05-13 13:03:00,75.6,24.7,29.85,North,-999,-999.0,-999.0,15,0.00,,,0.00,WSDL version 420,2013-05-13 18:03:00,
2013-05-13 13:09:00,75.6,24.7,29.85,SW,225,0.0,0.0,15,0.00,,,0.00,WSDL version 420,2013-05-13 18:09:00,
2013-05-13 13:15:00,75.7,24.8,29.85,ENE,75,0.0,0.0,15,0.00,,,0.00,WSDL version 420,2013-05-13 18:15:00,
2013-05-13 13:21:00,76.2,25.2,29.85,NE,56,0.0,1.3,15,0.00,,,0.00,WSDL version 420,2013-05-13 18:21:00,
2013-05-13 13:27:00,75.8,24.9,29.85,NW,315,0.0,0.0,15,0.00,,,0.00,WSDL version 420,2013-05-13 18:27:00,
2013-05-13 13:33:00,75.2,24.9,29.83,North,-999,-999.0,-999.0,15,0.00,,,0.00,WSDL version 420,2013-05-13 18:33:00,
2013-05-13 13:39:00,75.5,24.7,29.83,North,-999,-999.0,-999.0,15,0.00,,,0.00,WSDL version 420,2013-05-13 18:39:00,
2013-05-13 13:45:00,75.4,24.6,29.85,North,-999,-999.0,-999.0,15,0.00,,,0.00,WSDL version 420,2013-05-13 18:45:00,
2013-05-13 13:51:00,75.3,24.8,29.85,South,180,1.1,5.4,15,0.00,,,0.00,WSDL version 420,2013-05-13 18:51:00,
2013-05-13 13:57:00,75.0,25.3,29.85,North,-999,-999.0,-999.0,16,0.00,,,0.00,WSDL version 420,2013-05-13 18:57:00,
2013-05-13 14:03:00,74.5,25.4,29.83,SSW,203,0.0,0.0,16,0.00,,,0.00,WSDL version 420,2013-05-13 19:03:00,
2013-05-13 14:09:00,74.3,25.2,29.83,SSE,158,0.0,0.0,16,0.00,,,0.00,WSDL version 420,2013-05-13 19:09:00,
2013-05-13 14:15:00,74.5,25.4,29.83,SSE,158,0.0,1.6,16,0.00,,,0.00,WSDL version 420,2013-05-13 19:15:00,
2013-05-13 14:21:00,74.2,25.2,29.83,North,0,0.0,0.0,16,0.00,,,0.00,WSDL version 420,2013-05-13 19:21:00,
2013-05-13 14:27:00,73.6,24.7,29.83,SW,225,0.0,0.0,16,0.00,,,0.00,WSDL version 420,2013-05-13 19:27:00,
2013-05-13 14:33:00,73.3,24.5,29.83,West,270,0.4,1.3,16,0.00,,,0.00,WSDL version 420,2013-05-13 19:33:00,
2013-05-13 14:39:00,72.9,24.1,29.83,West,270,0.0,1.3,16,0.00,,,0.00,WSDL version 420,2013-05-13 19:39:00,
2013-05-13 14:45:00,72.6,23.9,29.83,West,270,0.0,0.0,16,0.00,,,0.00,WSDL version 420,2013-05-13 19:45:00,
2013-05-13 14:51:00,73.1,24.3,29.83,North,-999,-999.0,-999.0,16,0.00,,,0.00,WSDL version 420,2013-05-13 19:51:00,
2013-05-13 14:57:00,73.4,24.5,29.83,South,191,0.0,0.0,16,0.00,,,0.00,WSDL version 420,2013-05-13 19:57:00,
2013-05-13 15:03:00,73.4,24.5,29.83,North,-999,-999.0,-999.0,16,0.00,,,0.00,WSDL version 420,2013-05-13 20:03:00,
2013-05-13 15:09:00,73.2,24.4,29.83,West,270,0.0,0.0,16,0.00,,,0.00,WSDL version 420,2013-05-13 20:09:00,
2013-05-13 15:15:00,72.9,24.1,29.83,South,169,0.0,3.4,16,0.00,,,0.00,WSDL version 420,2013-05-13 20:15:00,
2013-05-13 15:21:00,73.3,24.5,29.83,SSE,158,1.3,3.4,16,0.00,,,0.00,WSDL version 420,2013-05-13 20:21:00,
2013-05-13 15:27:00,73.4,24.5,29.83,West,270,0.0,3.4,16,0.00,,,0.00,WSDL version 420,2013-05-13 20:27:00,
2013-05-13 15:33:00,73.7,24.7,29.80,South,180,3.1,0.0,16,0.00,,,0.00,WSDL version 420,2013-05-13 20:33:00,
2013-05-13 15:39:00,73.9,24.9,29.80,SE,146,1.0,2.5,16,0.00,,,0.00,WSDL version 420,2013-05-13 20:39:00,
2013-05-13 15:45:00,73.5,24.6,29.80,SSE,158,2.2,2.5,16,0.00,,,0.00,WSDL version 420,2013-05-13 20:45:00,
2013-05-13 15:51:00,73.2,24.4,29.80,North,0,0.0,2.5,16,0.00,,,0.00,WSDL version 420,2013-05-13 20:51:00,
2013-05-13 15:57:00,73.3,24.4,29.80,South,180,4.9,6.5,16,0.00,,,0.00,WSDL version 420,2013-05-13 20:57:00,
2013-05-13 16:03:00,73.5,24.6,29.80,SSE,158,1.9,6.5,16,0.00,,,0.00,WSDL version 420,2013-05-13 21:03:00,
2013-05-13 16:09:00,73.4,24.5,29.80,SE,135,0.0,3.6,16,0.00,,,0.00,WSDL version 420,2013-05-13 21:09:00,
2013-05-13 16:15:00,73.4,24.5,29.80,South,173,3.8,6.9,16,0.00,,,0.00,WSDL version 420,2013-05-13 21:15:00,
2013-05-13 16:21:00,73.4,24.5,29.80,SSE,158,1.1,6.9,16,0.00,,,0.00,WSDL version 420,2013-05-13 21:21:00,
2013-05-13 16:27:00,73.3,24.5,29.80,South,174,2.3,4.9,16,0.00,,,0.00,WSDL version 420,2013-05-13 21:27:00,
2013-05-13 16:33:00,73.4,24.5,29.77,North,0,0.0,4.9,16,0.00,,,0.00,WSDL version 420,2013-05-13 21:33:00,
2013-05-13 16:39:00,73.6,24.7,29.77,South,180,4.3,5.6,16,0.00,,,0.00,WSDL version 420,2013-05-13 21:39:00,
2013-05-13 16:45:00,73.6,24.7,29.80,SW,236,2.7,6.0,16,0.00,,,0.00,WSDL version 420,2013-05-13 21:45:00,
2013-05-13 16:51:00,73.6,24.7,29.80,South,173,1.9,4.0,16,0.00,,,0.00,WSDL version 420,2013-05-13 21:51:00,
2013-05-13 16:57:00,73.6,24.7,29.80,SSE,165,4.7,8.5,16,0.00,,,0.00,WSDL version 420,2013-05-13 21:57:00,
2013-05-13 17:03:00,73.7,24.7,29.77,SW,225,5.4,5.8,16,0.00,,,0.00,WSDL version 420,2013-05-13 22:03:00,
2013-05-13 17:09:00,73.6,24.7,29.77,SW,225,1.3,5.8,16,0.00,,,0.00,WSDL version 420,2013-05-13 22:09:00,
2013-05-13 17:15:00,73.8,24.8,29.77,South,174,1.9,3.1,16,0.00,,,0.00,WSDL version 420,2013-05-13 22:15:00,
2013-05-13 17:21:00,73.8,24.8,29.77,SSE,158,4.0,6.3,16,0.00,,,0.00,WSDL version 420,2013-05-13 22:21:00,
2013-05-13 17:27:00,73.9,24.9,29.77,SW,236,3.4,4.9,16,0.00,,,0.00,WSDL version 420,2013-05-13 22:27:00,
2013-05-13 17:33:00,74.3,25.2,29.77,SSW,203,1.6,3.4,16,0.00,,,0.00,WSDL version 420,2013-05-13 22:33:00,
2013-05-13 17:39:00,75.1,25.2,29.77,South,180,0.9,2.9,15,0.00,,,0.00,WSDL version 420,2013-05-13 22:39:00,
2013-05-13 17:45:00,75.7,24.8,29.77,SW,219,1.7,7.6,15,0.00,,,0.00,WSDL version 420,2013-05-13 22:45:00,
2013-05-13 17:51:00,75.7,24.8,29.77,West,270,0.7,7.6,15,0.00,,,0.00,WSDL version 420,2013-05-13 22:51:00,
2013-05-13 17:57:00,76.1,25.2,29.77,West,270,2.0,4.9,15,0.00,,,0.00,WSDL version 420,2013-05-13 22:57:00,
2013-05-13 18:03:00,77.2,26.0,29.80,WSW,253,1.9,4.9,15,0.00,,,0.00,WSDL version 420,2013-05-13 23:03:00,
2013-05-13 18:09:00,77.3,26.1,29.80,West,270,1.2,3.8,15,0.00,,,0.00,WSDL version 420,2013-05-13 23:09:00,
2013-05-13 18:15:00,76.6,25.6,29.77,West,270,2.8,3.8,15,0.00,,,0.00,WSDL version 420,2013-05-13 23:15:00,
2013-05-13 18:21:00,76.1,25.1,29.77,South,180,0.0,3.4,15,0.00,,,0.00,WSDL version 420,2013-05-13 23:21:00,
2013-05-13 18:27:00,75.6,24.8,29.77,SW,225,0.0,0.0,15,0.00,,,0.00,WSDL version 420,2013-05-13 23:27:00,
2013-05-13 18:33:00,74.9,25.4,29.80,West,270,0.0,0.0,16,0.00,,,0.00,WSDL version 420,2013-05-13 23:33:00,
2013-05-13 18:39:00,74.2,25.2,29.80,SE,143,0.0,0.0,16,0.00,,,0.00,WSDL version 420,2013-05-13 23:39:00,
2013-05-13 18:45:00,73.6,24.7,29.77,North,-999,-999.0,-999.0,16,0.00,,,0.00,WSDL version 420,2013-05-13 23:45:00,
2013-05-13 18:51:00,73.2,24.3,29.77,SSW,203,0.0,0.0,16,0.00,,,0.00,WSDL version 420,2013-05-13 23:51:00,
2013-05-13 18:57:00,72.7,23.9,29.77,North,-999,-999.0,-999.0,16,0.00,,,0.00,WSDL version 420,2013-05-13 23:57:00,
2013-05-13 19:03:00,72.4,23.7,29.77,SSW,203,0.0,0.0,16,0.00,,,0.00,WSDL version 420,2013-05-14 00:03:00,
2013-05-13 19:09:00,72.1,23.5,29.77,SW,225,0.0,0.0,16,0.00,,,0.00,WSDL version 420,2013-05-14 00:09:00,
2013-05-13 19:15:00,71.9,23.3,29.77,South,180,0.0,0.0,16,0.00,,,0.00,WSDL version 420,2013-05-14 00:15:00,
2013-05-13 19:21:00,71.5,23.7,29.77,North,-999,-999.0,-999.0,17,0.00,,,0.00,WSDL version 420,2013-05-14 00:21:00,
2013-05-13 19:27:00,71.2,24.2,29.77,North,-999,-999.0,-999.0,17,0.00,,,0.00,WSDL version 420,2013-05-14 00:27:00,
2013-05-13 19:33:00,70.9,24.0,29.77,North,-999,-999.0,-999.0,17,0.00,,,0.00,WSDL version 420,2013-05-14 00:33:00,
2013-05-13 19:39:00,70.6,23.7,29.77,North,-999,-999.0,-999.0,17,0.00,,,0.00,WSDL version 420,2013-05-14 00:39:00,
2013-05-13 19:45:00,70.0,23.2,29.77,North,-999,-999.0,-999.0,17,0.00,,,0.00,WSDL version 420,2013-05-14 00:45:00,
2013-05-13 19:51:00,69.6,22.9,29.77,SSW,203,0.0,0.0,17,0.00,,,0.00,WSDL version 420,2013-05-14 00:51:00,
2013-05-13 19:57:00,69.4,22.7,29.77,North,-999,-999.0,-999.0,17,0.00,,,0.00,WSDL version 420,2013-05-14 00:57:00,
2013-05-13 20:03:00,69.1,22.5,29.77,North,0,0.0,0.0,17,0.00,,,0.00,WSDL version 420,2013-05-14 01:03:00,
2013-05-13 20:09:00,68.4,21.9,29.77,South,180,0.0,0.0,17,0.00,,,0.00,WSDL version 420,2013-05-14 01:09:00,
2013-05-13 20:15:00,68.0,21.6,29.77,North,-999,-999.0,-999.0,17,0.00,,,0.00,WSDL version 420,2013-05-14 01:15:00,
2013-05-13 20:21:00,67.8,21.4,29.77,North,-999,-999.0,-999.0,17,0.00,,,0.00,WSDL version 420,2013-05-14 01:21:00,
2013-05-13 20:27:00,67.6,21.3,29.77,SSE,158,0.0,0.0,17,0.00,,,0.00,WSDL version 420,2013-05-14 01:27:00,
2013-05-13 20:33:00,67.4,21.1,29.77,SSE,158,0.0,0.0,17,0.00,,,0.00,WSDL version 420,2013-05-14 01:33:00,
2013-05-13 20:39:00,67.2,20.9,29.77,SSE,158,0.0,0.0,17,0.00,,,0.00,WSDL version 420,2013-05-14 01:39:00,
2013-05-13 20:45:00,67.0,24.0,29.77,SSE,158,0.0,0.0,20,0.00,,,0.00,WSDL version 420,2013-05-14 01:45:00,
2013-05-13 20:51:00,66.8,24.5,29.77,SSE,158,0.0,0.0,20,0.00,,,0.00,WSDL version 420,2013-05-14 01:51:00,
2013-05-13 20:57:00,66.6,24.3,29.77,SSE,158,0.0,0.0,20,0.00,,,0.00,WSDL version 420,2013-05-14 01:57:00,
2013-05-13 21:03:00,66.5,24.2,29.77,SSE,158,0.0,0.0,20,0.00,,,0.00,WSDL version 420,2013-05-14 02:03:00,
2013-05-13 21:09:00,65.9,23.7,29.77,SSE,158,0.0,0.0,20,0.00,,,0.00,WSDL version 420,2013-05-14 02:09:00,
2013-05-13 21:15:00,65.3,23.2,29.77,SSE,158,0.0,0.0,20,0.00,,,0.00,WSDL version 420,2013-05-14 02:15:00,
2013-05-13 21:21:00,65.2,24.3,29.77,SSE,158,0.0,0.0,23,0.00,,,0.00,WSDL version 420,2013-05-14 02:21:00,
2013-05-13 21:27:00,65.4,26.7,29.77,North,-999,-999.0,-999.0,23,0.00,,,0.00,WSDL version 420,2013-05-14 02:27:00,
2013-05-13 21:33:00,65.0,26.3,29.77,SSE,158,0.0,0.0,23,0.00,,,0.00,WSDL version 420,2013-05-14 02:33:00,
2013-05-13 21:39:00,65.0,26.3,29.77,North,0,0.0,0.0,23,0.00,,,0.00,WSDL version 420,2013-05-14 02:39:00,
2013-05-13 21:45:00,65.2,26.5,29.77,SSE,158,0.0,0.0,23,0.00,,,0.00,WSDL version 420,2013-05-14 02:45:00,
2013-05-13 21:51:00,65.5,26.8,29.77,SSE,158,0.0,0.0,23,0.00,,,0.00,WSDL version 420,2013-05-14 02:51:00,
2013-05-13 21:57:00,65.7,26.9,29.77,North,-999,-999.0,-999.0,23,0.00,,,0.00,WSDL version 420,2013-05-14 02:57:00,
2013-05-13 22:03:00,65.8,27.0,29.77,SSE,158,0.0,0.0,23,0.00,,,0.00,WSDL version 420,2013-05-14 03:03:00,
2013-05-13 22:09:00,65.8,27.0,29.77,South,180,0.0,0.0,23,0.00,,,0.00,WSDL version 420,2013-05-14 03:09:00,
2013-05-13 22:15:00,65.7,26.9,29.77,South,176,0.0,0.0,23,0.00,,,0.00,WSDL version 420,2013-05-14 03:15:00,
2013-05-13 22:21:00,65.7,26.9,29.77,South,173,0.0,0.0,23,0.00,,,0.00,WSDL version 420,2013-05-14 03:21:00,
2013-05-13 22:27:00,65.6,26.8,29.77,South,174,0.0,0.0,23,0.00,,,0.00,WSDL version 420,2013-05-14 03:27:00,
2013-05-13 22:33:00,65.5,26.7,29.77,SSE,167,0.0,0.0,23,0.00,,,0.00,WSDL version 420,2013-05-14 03:33:00,
2013-05-13 22:39:00,65.5,26.7,29.77,South,169,0.0,0.0,23,0.00,,,0.00,WSDL version 420,2013-05-14 03:39:00,
2013-05-13 22:45:00,65.5,26.7,29.77,SSE,162,0.0,0.0,23,0.00,,,0.00,WSDL version 420,2013-05-14 03:45:00,
2013-05-13 22:51:00,65.5,26.7,29.77,South,171,0.0,0.0,23,0.00,,,0.00,WSDL version 420,2013-05-14 03:51:00,
2013-05-13 22:57:00,65.5,26.7,29.77,SSE,160,0.0,0.0,23,0.00,,,0.00,WSDL version 420,2013-05-14 03:57:00,
2013-05-13 23:03:00,65.5,26.7,29.77,SSE,164,0.0,3.6,23,0.00,,,0.00,WSDL version 420,2013-05-14 04:03:00,
2013-05-13 23:06:00,65.4,26.6,29.77,SSE,163,0.0,3.6,23,0.00,,,0.00,WSDL version 420,2013-05-14 04:06:00,
2013-05-13 23:12:00,65.3,26.6,29.77,SSE,167,0.0,3.6,23,0.00,,,0.00,WSDL version 420,2013-05-14 04:12:00,
2013-05-13 23:18:00,65.3,26.6,29.77,SSE,163,0.0,0.0,23,0.00,,,0.00,WSDL version 420,2013-05-14 04:18:00,
2013-05-13 23:24:00,65.1,26.4,29.77,SSE,160,0.0,0.0,23,0.00,,,0.00,WSDL version 420,2013-05-14 04:24:00,
2013-05-13 23:30:00,65.1,26.4,29.74,SSE,158,0.0,0.0,23,0.00,,,0.00,WSDL version 420,2013-05-14 04:30:00,
2013-05-13 23:36:00,65.0,26.3,29.74,SSE,158,0.0,0.0,23,0.00,,,0.00,WSDL version 420,2013-05-14 04:36:00,
2013-05-13 23:42:00,64.9,26.3,29.74,South,169,0.0,0.0,23,0.00,,,0.00,WSDL version 420,2013-05-14 04:42:00,
2013-05-13 23:48:00,64.8,26.1,29.77,SSE,161,0.0,0.0,23,0.00,,,0.00,WSDL version 420,2013-05-14 04:48:00,
2013-05-13 23:54:00,64.8,26.1,29.77,SSE,158,0.0,0.0,23,0.00,,,0.00,WSDL version 420,2013-05-14 04:54:00,